STARLINK-11172, 60193

Orbit data source: Space-Track

STARLINK-11172, 60193 is a payload satellite owned by SpaceX/Seattle (US) in LEO that was launched on Wed, 03 Jul 2024 UTC via an FALCON 9 launch vehicle from the Air Force Eastern Test Range (AFETR). Payload-class satellites include a variety of spacecraft equipped with specific instruments for various scientific and technological missions. These include communications satellites like Starlink; space stations such as the ISS; scientific satellites like the Hubble; Earth observation satellites from companies like Planet Labs, Umbra, and HawkEye 360; GPS; miniature CubeSats for education and research; and military/defense satellites.

Loading next visibility...
Identifier
60193, 2024-124L
Orbit
LEO
Country
Flag of USUS
Related business
Manufacturer
SpaceX/Seattle
Mission
Operational Commercial Communications
Bus & Motor
STARLINK V2MD, Unknown motor
Mass
960 kg wet, ~910 kg dry
Launch date (UTC)
2024-07-03 (1 year ago)
Launch vehicle
FALCON 9
Launch site
Air Force Eastern Test Range (AFETR)
Object type
Payload
Rocket body
Debris
Shape & HBR
Box + 2 Pan, 18.1 m
Radar Cross Section
36.964 m², Large (>1 m²)

Expand to show TLE details & history
Last TLE update: 7 hours ago

TLE from 7 hours ago
0 STARLINK-11172
1 60193U 24124L   25341.94703277  .00012278  00000-0  10603-3 0  9999
2 60193  53.1572 253.6002 0001277 101.6375 258.4786 15.69716402 82126
Epoch: 2025-12-07T22:43Z
TLE epoch observation values (Epoch: 2025-12-07T22:43:43.631Z)
Latitude
-0.00003°
Longitude
-164.28474°
Altitude
360.795 km
Speed
7.694 km/s
True Right ascension
16h 54m 24s
True Declination
0° 00' 00"
Sunlit
Object was in daylight at epoch
Visualization orbit readout
Latitude
Unknown
Longitude
Unknown
Altitude
Unknown
Speed
Unknown
Apparent Right ascension
Unknown
Apparent Declination
Unknown
Sunlit
N/A
Visualization observer readout
Local Sidereal Time
03:52:15
Azimuth
Unknown
Elevation
Unknown
Doppler factor
Unknown
Orbital elements
Apogee altitude
360.83 km
Perigee altitude
359.109 km
Semi-major axis
6,738.107 km
Eccentricity
0.00013
Inclination
53.1572°
RAAN
253.6002°
Arg. of periapsis
101.6375°
True anomaly
258.46426°
Mean anomaly
258.4786°
Eccentric anomaly
258.47143°
Mean motion
3.92407 °/min
Orbital period
91.74 mins
BSTAR
0.00010603
Loading maneuver chart data...
Computing Atmospheric mass density...
Loading historical data...
Loading historical data...
Loading historical data...
Loading historical data...
Loading historical data...
Loading historical data...
Loading historical data...

Documentation

Showing up to 5 results
|